SES-4

Last updated on Sun Apr 12 2026 00:02:52 GMT+0000 (Coordinated Universal Time)

1 38087U 12007A 26101.37372976 -.00000167 00000+0 00000+0 0 9993 2 38087 0.0243 68.2639 0002340 323.8985 279.9725 1.00271607 51559
UTC large
Height (km)
Speed (km/s)
/
Latitude / Longitude
Inclination (degrees)
Orbital Period (minutes)
Azimuth
Elevation
Range (km)
Doppler Factor

Next 0 passes for location: London (51.5072 / 0.1276)

Sorry there are no passes over London.
SES-4